Regional Weather Roundup
Issued by NWS

Home | Current Version | Previous Version | Graphics & Text | Print | Product List | Glossary On
Versions: 1 2 3 4 5 6 7 8 9 10 11 12 13 14 15 16 17 18 19 20 21 22 23 24 25 26 27 28 29 30 31 32 33 34 35 36 37 38 39 40 41 42 43 44 45 46 47 48 49 50
000
ASUS43 KLOT 161359
RWRIL

ILLINOIS REGIONAL WEATHER ROUNDUP
NATIONAL WEATHER SERVICE CHICAGO/ROMEOVILLE IL
900 AM CDT MON OCT 16 2017

NOTE: "FAIR" INDICATES FEW OR NO CLOUDS BELOW 12,000 FEET WITH NO
SIGNIFICANT WEATHER AND/OR OBSTRUCTIONS TO VISIBILITY.

* THESE STATIONS ARE NOT UNDER NWS QUALITY CONTROL. THEY ALSO MAY NOT
  REPORT WEATHER SUCH AS PRECIPITATION OR FOG.

ILZ001-002-007-009-015-016-024-161500-
NORTHWEST ILLINOIS

CITY           SKY/WX    TMP DP  RH WIND       PRES   REMARKS
MOLINE         SUNNY     46  40  79 W6        30.33R
$$

ILZ003-004-008-010-011-017-018-161500-
NORTH CENTRAL ILLINOIS

CITY           SKY/WX    TMP DP  RH WIND       PRES   REMARKS
ROCKFORD       NOT AVBL
$$

ILZ005-006-012>014-019>023-161500-
NORTHEAST ILLINOIS

CITY           SKY/WX    TMP DP  RH WIND       PRES   REMARKS
CHICAGO-OHARE  MOSUNNY   48  40  73 W7        30.31S
CHICAGO-MIDWAY NOT AVBL
AURORA         SUNNY     46  42  86 SW8       30.33R FOG
WAUKEGAN       NOT AVBL
DUPAGE AIRPORT SUNNY     46  43  89 S5        30.31S
WHEELING       SUNNY     49  42  77 W5        30.32S
NORTHERLY ISL    N/A     49  39  68 SW8         N/A
$$

LMZ740>746-161500-
SOUTHERN LAKE MICHIGAN

STATION/POSITION SKY/WX   TEMP    WIND        PRES    VSBY  WAVE
                          AIR SEA DIR/SP/G                  HT/PER
                          (F)     (DEG/KT/KT) (MB)    (MI)  (FT/S)
SOUTHERN BUOY              53 62  320/ 10/ 14 1025.5R         3/ 4
WILMETTE HARBOR            48 57  260/ 12/ 16   N/A           3/ 6
HARRISON CRIB              49     280/ 11/ 12   N/A
BURNHAM HARBOR             49     250/  8/  9   N/A
CALUMET HARBOR             48     240/  5/  7 1025.9S
BURNS HARBOR               50     240/ 10/ 11 1027.1R
MICHIGAN CITY              51     250/ 19/ 21   N/A
MICHIGAN CITY 6N           52 57  280/ 14/ 17   N/A           4/ 6
ST. JOSEPH                 54 56  300/ 12/ 16 1026.4R         4/ 6
$$

ILZ025>027-034>036-040-047-049-050-058-095>099-161500-
WEST-CENTRAL ILLINOIS

CITY           SKY/WX    TMP DP  RH WIND       PRES   REMARKS
$$

ILZ028>032-037-038-041>044-048-051>054-059>061-161500-
CENTRAL ILLINOIS

CITY           SKY/WX    TMP DP  RH WIND       PRES   REMARKS
PEORIA         NOT AVBL
SPRINGFIELD    NOT AVBL
TAYLORVILLE    NOT AVBL
$$

ILZ033-039-045-046-055>057-062-063-161500-
EAST-CENTRAL ILLINOIS

CITY           SKY/WX    TMP DP  RH WIND       PRES   REMARKS
$$

ILZ079-100>102-161500-
SOUTHWEST ILLINOIS

CITY           SKY/WX    TMP DP  RH WIND       PRES   REMARKS
ALTON          SUNNY     48  48 100 SW6       30.40R
$$

ILZ064>066-069>071-074>076-080>082-084>086-088>090-092>094-161500-
SOUTH-CENTRAL ILLINOIS

CITY           SKY/WX    TMP DP  RH WIND       PRES   REMARKS
CARBONDALE     SUNNY     48  45  89 N6        30.40R
MARION         SUNNY     48  48 100 N7        30.40R
$$

ILZ067-068-072-073-078-083-087-091-161500-
SOUTHEAST ILLINOIS

CITY           SKY/WX    TMP DP  RH WIND       PRES   REMARKS
$$

ABBREVIATIONS USED IN REMARKS
   TC - TEMPERATURE IN CELSIUS
  WCI - WIND CHILL INDEX
   HX - HEAT INDEX
  VSB - VISIBILITY
$$





USA.gov is the U.S. government's official web portal to all federal, state and local government web resources and services.